Weather History for KSNK - March, 2013

Change the Weather History Date:

Thursday, March 21, 2013

  Actual Average Record
Temperature  
Mean Temperature 67 °F -  
Max Temperature 83 °F 68 °F 93 °F (1916)
Min Temperature 51 °F 37 °F 13 °F (1965)
Cooling Degree Days 2    
Growing Degree Days 17 (Base 50)    
Moisture  
Dew Point 30 °F    
Average Humidity 33    
Maximum Humidity 69    
Minimum Humidity 6    
Precipitation  
Precipitation 0.00 in - - ()
Sea Level Pressure  
Sea Level Pressure 29.68 in    
Wind  
Wind Speed 14 mph (SSW)    
Max Wind Speed 23 mph    
Max Gust Speed 32 mph    
Visibility 10 miles    
Events      
Averages and records for this station are not official NWS values.
T = Trace of Precipitation, MM = Missing Value Source: NWS Daily Summary

Daily Weather History Graph

Daily Weather History Graph

Search for Another Location

Airport or City:

Trip Planner

Search our weather history database for the weather conditions in past years. The results will help you decide how hot, cold, wet, or windy it might be!

Date:

Astronomy

Mar. 21, 2013 Rise Set
Actual Time 7:45 AM CDT 7:56 PM CDT
Civil Twilight 7:21 AM CDT 8:20 PM CDT
Nautical Twilight 6:52 AM CDT 8:49 PM CDT
Astronomical Twilight 6:23 AM CDT 9:18 PM CDT
Moon 2:43 PM CDT (3/21) 3:52 AM CDT (3/21)
Length of Visible Light 12h 59m
Length of Day
12h 10m
Waxing Gibbous, 69% of the Moon is Illuminated
Mar 21
Waxing Gibbous
Mar 27
Full
Apr 2
Last Quarter
Apr 10
New
Apr 18
First Quarter

Hourly Weather History & Observations

Time (CDT) Temp. Dew Point Humidity Pressure Visibility Wind Dir Wind Speed Gust Speed Precip Events Conditions
12:35 AM 55.8 °F 27.3 °F 34% 29.94 in 10.0 mi SE 13.8 mph - N/A   Clear
1:15 AM 54.5 °F 27.7 °F 36% 29.91 in 10.0 mi SE 13.8 mph - N/A   Clear
1:35 AM 54.5 °F 28.2 °F 36% 29.90 in 10.0 mi SSE 11.5 mph - N/A   Clear
1:55 AM 54.5 °F 28.2 °F 36% 29.90 in 10.0 mi SSE 10.4 mph - N/A   Clear
2:15 AM 54.5 °F 28.2 °F 36% 29.88 in 10.0 mi SSE 12.7 mph - N/A   Clear
2:35 AM 54.5 °F 27.7 °F 36% 29.86 in 10.0 mi SSE 13.8 mph - N/A   Clear
2:55 AM 54.5 °F 27.9 °F 36% 29.86 in 10.0 mi SSE 12.7 mph - N/A   Clear
3:15 AM 54.5 °F 28.4 °F 37% 29.86 in 10.0 mi SSE 9.2 mph - N/A   Clear
3:35 AM 54.5 °F 29.5 °F 38% 29.85 in 10.0 mi SSE 9.2 mph - N/A   Clear
3:55 AM 52.3 °F 28.8 °F 40% 29.83 in 10.0 mi SSE 10.4 mph - N/A   Clear
4:15 AM 51.8 °F 29.1 °F 42% 29.82 in 10.0 mi SSE 12.7 mph - N/A   Clear
4:35 AM 52.0 °F 30.2 °F 43% 29.81 in 10.0 mi SSE 12.7 mph - N/A   Clear
4:55 AM 51.8 °F 31.1 °F 45% 29.80 in 10.0 mi SSE 10.4 mph - N/A   Clear
5:15 AM 51.8 °F 32.2 °F 47% 29.79 in 10.0 mi SSE 11.5 mph - N/A   Clear
5:35 AM 53.2 °F 35.1 °F 50% 29.78 in 10.0 mi SSE 13.8 mph - N/A   Clear
5:55 AM 54.5 °F 37.0 °F 52% 29.77 in 10.0 mi SSE 12.7 mph - N/A   Clear
6:15 AM 54.5 °F 38.5 °F 55% 29.76 in 10.0 mi SSE 16.1 mph - N/A   Clear
6:35 AM 54.5 °F 39.7 °F 57% 29.76 in 10.0 mi SSE 13.8 mph - N/A   Clear
6:55 AM 54.5 °F 40.8 °F 60% 29.76 in 10.0 mi SSE 12.7 mph - N/A   Clear
7:15 AM 54.5 °F 41.7 °F 62% 29.76 in 10.0 mi SSE 12.7 mph - N/A   Clear
7:55 AM 51.8 °F 40.1 °F 64% 29.75 in 10.0 mi SSE 11.5 mph - N/A   Clear
8:15 AM 51.8 °F 40.6 °F 66% 29.75 in 10.0 mi SSE 11.5 mph - N/A   Clear
8:35 AM 52.3 °F 41.7 °F 67% 29.75 in 10.0 mi SSE 10.4 mph - N/A   Clear
8:55 AM 54.5 °F 43.5 °F 66% 29.76 in 10.0 mi SSE 12.7 mph - N/A   Clear
9:15 AM 54.5 °F 43.7 °F 67% 29.75 in 10.0 mi South 13.8 mph 18.4 mph N/A   Clear
9:35 AM 55.2 °F 45.1 °F 69% 29.74 in 10.0 mi South 16.1 mph - N/A   Clear
9:55 AM 56.8 °F 46.9 °F 69% 29.74 in 10.0 mi South 16.1 mph 21.9 mph N/A   Clear
10:15 AM 57.2 °F 47.1 °F 69% 29.73 in 10.0 mi South 16.1 mph 21.9 mph N/A   Clear
10:35 AM 59.4 °F 48.9 °F 68% 29.73 in 10.0 mi South 17.3 mph 26.5 mph N/A   Clear
10:55 AM 61.9 °F 49.6 °F 64% 29.73 in 10.0 mi SSW 16.1 mph - N/A   Clear
11:15 AM 63.9 °F 50.0 °F 61% 29.72 in 10.0 mi South 18.4 mph 26.5 mph N/A   Clear
11:35 AM 66.6 °F 50.7 °F 57% 29.72 in 10.0 mi SSW 17.3 mph 25.3 mph N/A   Clear
11:55 AM 68.9 °F 50.2 °F 51% 29.70 in 10.0 mi SSW 18.4 mph 26.5 mph N/A   Clear
12:15 PM 70.5 °F 48.6 °F 46% 29.69 in 10.0 mi SSW 18.4 mph 23.0 mph N/A   Clear
12:35 PM 73.2 °F 47.5 °F 40% 29.68 in 10.0 mi SW 15.0 mph 26.5 mph N/A   Clear
12:55 PM 74.7 °F 44.4 °F 34% 29.67 in 10.0 mi SW 17.3 mph 23.0 mph N/A   Clear
1:15 PM 75.9 °F 40.3 °F 28% 29.66 in 10.0 mi WSW 18.4 mph 31.1 mph N/A   Clear
1:35 PM 76.8 °F 37.9 °F 25% 29.65 in 10.0 mi WSW 16.1 mph 26.5 mph N/A   Clear
1:55 PM 77.0 °F 36.9 °F 23% 29.64 in 10.0 mi WSW 20.7 mph 25.3 mph N/A   Clear
2:15 PM 77.0 °F 36.0 °F 23% 29.62 in 10.0 mi SW 19.6 mph 24.2 mph N/A   Clear
2:35 PM 77.0 °F 34.7 °F 22% 29.61 in 10.0 mi SW 16.1 mph 24.2 mph N/A   Clear
2:55 PM 77.2 °F 32.9 °F 20% 29.59 in 10.0 mi SW 17.3 mph 23.0 mph N/A   Clear
3:15 PM 78.6 °F 31.8 °F 18% 29.58 in 10.0 mi SW 16.1 mph 25.3 mph N/A   Clear
3:35 PM 80.4 °F 28.4 °F 15% 29.58 in 10.0 mi SW 18.4 mph 29.9 mph N/A   Clear
3:55 PM 80.2 °F 24.1 °F 13% 29.56 in 10.0 mi WSW 18.4 mph 29.9 mph N/A   Clear
4:15 PM 80.8 °F 23.9 °F 12% 29.55 in 10.0 mi SW 13.8 mph 24.2 mph N/A   Clear
4:35 PM 81.1 °F 23.0 °F 12% 29.55 in 10.0 mi SW 15.0 mph - N/A   Clear
4:55 PM 81.7 °F 21.2 °F 11% 29.54 in 10.0 mi WSW 20.7 mph 32.2 mph N/A   Clear
5:15 PM 82.4 °F 18.0 °F 9% 29.53 in 10.0 mi WSW 23.0 mph 31.1 mph N/A   Clear
5:35 PM 82.0 °F 17.1 °F 9% 29.53 in 10.0 mi SW 19.6 mph 29.9 mph N/A   Clear
5:55 PM 82.8 °F 15.4 °F 8% 29.52 in 10.0 mi SW 20.7 mph 31.1 mph N/A   Clear
6:15 PM 83.1 °F 13.6 °F 7% 29.51 in 10.0 mi SW 18.4 mph 26.5 mph N/A   Clear
6:35 PM 82.6 °F 12.4 °F 7% 29.51 in 10.0 mi SW 19.6 mph 26.5 mph N/A   Clear
6:55 PM 82.6 °F 12.2 °F 7% 29.51 in 10.0 mi SW 13.8 mph 21.9 mph N/A   Clear
7:15 PM 82.2 °F 10.8 °F 7% 29.52 in 10.0 mi WSW 17.3 mph 24.2 mph N/A   Clear
7:35 PM 81.5 °F 7.5 °F 6% 29.53 in 10.0 mi West 16.1 mph 20.7 mph N/A   Clear
7:55 PM 80.1 °F 10.6 °F 7% 29.53 in 10.0 mi West 12.7 mph - N/A   Clear
8:15 PM 78.6 °F 12.6 °F 8% 29.53 in 10.0 mi West 9.2 mph - N/A   Clear
8:35 PM 76.8 °F 13.5 °F 9% 29.54 in 10.0 mi West 9.2 mph - N/A   Clear
8:55 PM 76.5 °F 13.8 °F 9% 29.55 in 10.0 mi WSW 9.2 mph - N/A   Clear
9:15 PM 73.8 °F 14.4 °F 10% 29.56 in 10.0 mi WSW 8.1 mph - N/A   Clear
9:55 PM 69.4 °F 17.2 °F 14% 29.57 in 10.0 mi WSW 9.2 mph - N/A   Clear
10:15 PM 68.7 °F 16.9 °F 14% 29.57 in 10.0 mi SW 8.1 mph - N/A   Clear
10:35 PM 67.6 °F 16.5 °F 14% 29.58 in 10.0 mi SW 8.1 mph - N/A   Clear
10:55 PM 65.1 °F 16.0 °F 15% 29.58 in 10.0 mi SW 8.1 mph - N/A   Clear
11:15 PM 63.9 °F 16.0 °F 16% 29.58 in 10.0 mi WSW 8.1 mph - N/A   Clear
11:35 PM 62.4 °F 15.8 °F 16% 29.59 in 10.0 mi WSW 8.1 mph - N/A   Clear
11:55 PM 61.7 °F 16.2 °F 17% 29.59 in 10.0 mi WSW 9.2 mph - N/A   Clear